Wind_Speed
9 8 9 8 10 10 10 9 9 9 8 9 10 10 10 11 11 11 11 12 13 12 12 12 13 14 15 15 15 16 16 16 15 14 14 14 14 16 16 17 18 19 20
10 9 10 9 11 11 10 9 9 9 9 9 10 9 10 11 12 12 12 13 14 15 16 16 16 16 16 16 16 18 18 18 18 17 16 16 17 18 18 17 18 19 20
11 9 10 10 12 10 9 9 10 10 10 11 11 11 11 11 12 13 13 14 15 16 17 18 18 18 17 18 18 18 19 19 19 19 17 17 18 18 19 18 19 20 20
12 10 10 8 12 10 9 10 10 12 12 12 13 13 13 13 14 15 16 17 17 18 19 19 19 19 19 19 19 19 20 20 21 20 20 19 19 20 21 20 20 20 21
13 11 9 7 11 12 11 11 12 13 13 14 14 15 14 14 15 16 17 19 20 20 20 20 20 20 20 21 21 21 21 21 21 22 22 22 21 22 23 22 22 22 22
12 12 10 9 10 13 12 12 13 14 14 16 16 16 16 16 17 18 19 20 21 21 20 20 20 21 21 22 22 23 23 23 22 22 23 24 24 24 24 25 25 25 25
11 11 11 11 11 15 13 14 15 15 15 16 17 17 17 17 17 17 19 19 21 21 21 22 22 22 23 23 23 24 25 26 25 25 25 25 25 25 26 26 27 27 28
12 11 12 12 13 16 15 15 16 15 16 17 18 19 18 18 18 19 20 21 22 23 23 23 23 24 24 24 26 26 27 27 27 27 27 27 27 27 26 27 27 27 28
13 11 13 14 14 16 15 16 17 16 17 18 18 19 20 19 19 20 22 23 24 25 25 25 25 26 27 28 29 29 28 28 29 29 29 29 29 29 28 28 29 28 28
14 12 13 15 16 16 16 17 18 18 18 18 19 20 21 22 23 22 22 24 25 26 26 26 26 27 28 29 30 30 30 30 31 31 32 32 32 31 31 31 31 30 30
14 13 14 16 17 18 17 17 17 17 18 19 20 22 24 25 26 26 22 21 24 26 26 25 26 27 28 29 30 31 32 33 34 34 34 35 35 34 33 34 34 34 32
14 14 16 16 18 18 17 17 17 18 20 21 22 22 23 25 26 28 29 25 24 20 24 26 27 29 31 32 33 34 34 36 36 37 37 37 38 38 37 37 37 37 37
15 15 16 17 18 18 18 18 19 20 20 21 21 22 23 26 27 29 32 34 32 26 24 25 26 29 32 34 35 36 36 38 38 39 40 41 42 42 41 41 41 41 41
15 16 17 17 18 19 19 19 20 20 20 20 21 22 24 28 30 32 35 38 41 38 31 30 30 31 33 36 38 41 40 40 42 42 42 44 44 45 45 45 45 45 45
16 17 17 18 19 20 20 20 19 19 20 21 23 25 26 29 32 35 37 40 46 52 49 34 39 36 39 41 41 44 45 45 46 46 46 47 47 48 48 48 48 48 48
17 17 19 19 20 20 19 18 20 20 22 24 26 28 30 32 34 37 40 42 45 51 59 55 44 43 42 44 45 47 49 50 50 51 52 52 52 52 52 52 52 52 52
18 19 20 19 19 20 19 20 21 23 25 27 30 31 34 36 37 40 43 45 47 50 57 57 57 53 49 48 47 49 51 53 54 54 55 56 56 56 56 55 55 56 55
19 20 19 19 20 20 21 23 25 27 29 31 33 36 39 41 43 45 46 46 48 49 54 58 58 58 58 57 55 54 52 53 55 56 55 54 55 56 57 58 58 56 56
19 18 18 19 21 22 24 26 29 31 33 35 38 41 43 45 45 46 47 48 50 52 53 57 59 60 60 60 60 59 57 55 53 53 55 55 53 53 53 54 55 56 57
18 18 19 21 23 26 28 31 33 34 36 39 42 45 46 47 48 49 50 51 52 54 55 57 60 61 62 61 62 63 63 61 60 57 53 52 52 52 52 51 50 52 53
18 19 21 23 26 29 32 34 36 38 41 43 44 45 47 48 49 51 54 55 56 58 59 60 62 62 62 62 62 62 62 61 61 59 58 54 50 48 48 48 47 46 48
19 20 23 26 29 32 35 38 41 43 44 46 46 47 48 49 51 52 54 56 58 60 62 62 63 64 63 62 61 61 61 60 62 56 54 52 48 46 42 40 41 40 42
20 23 26 28 31 35 38 41 44 46 47 48 50 51 52 52 53 55 56 57 57 57 57 58 60 59 59 56 56 56 54 54 54 52 50 49 43 44 39 38 35 35 36
23 26 29 31 33 37 41 43 45 47 48 49 51 52 55 56 57 58 60 61 60 57 52 50 50 49 47 45 44 45 46 48 49 48 46 48 41 41 40 39 37 36 36
25 28 30 34 37 39 42 45 47 47 49 51 52 54 57 58 59 59 60 62 62 59 54 51 47 43 41 39 37 39 38 40 45 40 38 43 39 40 39 37 36 34 34
26 29 33 36 39 42 44 45 48 50 53 55 56 58 60 60 62 60 60 58 57 54 51 49 44 40 37 34 33 34 35 38 39 37 35 38 37 39 41 36 33 32 33
Wind_Direction
287 290 291 296 298 301 306 303 305 306 313 318 320 323 320 316 314 308 304 301 300 296 294 292 292 295 296 297 298 299 300 302 301 299 297 291 283 281 279 278 277 273 273
287 289 292 302 299 298 299 301 301 300 309 316 317 318 314 312 309 305 301 298 296 295 292 290 289 289 292 294 294 296 298 298 297 296 294 292 290 288 286 283 278 277 275
287 293 296 308 299 293 295 296 300 301 306 312 314 316 313 312 309 307 307 304 301 296 293 293 293 294 294 295 295 293 293 294 295 293 290 288 287 286 286 285 283 282 280
286 291 296 309 297 290 290 293 299 299 302 305 309 312 311 313 311 310 309 305 301 298 297 296 295 295 296 296 295 294 294 294 292 291 291 288 286 285 284 284 282 282 283
288 291 293 300 292 293 292 295 296 298 299 301 306 308 312 314 311 308 306 303 300 299 297 295 294 294 294 295 295 295 293 290 291 292 291 289 286 285 283 281 280 278 276
284 287 294 296 292 290 296 296 297 296 297 298 303 307 312 312 309 309 306 303 300 298 296 294 292 291 292 294 295 294 293 291 288 285 285 285 285 284 282 282 280 278 276
279 284 293 290 294 292 298 299 297 292 294 297 302 307 310 309 309 309 306 304 301 298 295 294 293 292 291 291 291 292 292 292 290 287 284 283 282 282 281 280 280 280 279
276 288 286 290 297 295 298 299 295 295 296 298 302 306 308 305 305 303 302 301 298 295 293 291 290 289 287 286 287 287 287 287 286 285 283 281 280 278 277 276 275 274 274
280 282 284 289 293 294 298 299 297 299 299 300 302 304 303 301 300 300 299 299 298 295 293 291 290 289 289 288 286 285 284 283 283 283 283 282 280 278 277 276 275 274 271
276 282 287 292 293 296 297 300 298 300 302 302 302 302 299 298 297 296 297 296 295 293 294 293 291 288 286 285 285 286 286 284 283 282 282 281 280 279 278 277 276 274 273
278 285 292 295 298 296 299 298 299 301 299 298 298 299 301 302 301 299 297 294 296 297 296 297 294 292 289 288 286 285 284 282 281 279 278 278 278 277 276 276 275 274 272
282 289 292 297 295 297 299 297 297 298 298 298 300 302 301 299 298 300 300 296 292 285 292 293 292 291 290 288 286 284 283 282 282 282 280 277 275 275 274 273 273 273 272
282 288 296 296 295 297 295 296 299 299 298 299 301 300 300 299 300 299 300 299 296 289 283 285 289 289 288 287 286 285 284 283 282 280 279 278 278 276 273 271 270 269 268
288 294 294 294 295 295 296 298 298 299 299 299 299 301 301 300 301 301 301 301 299 298 296 294 291 291 291 290 290 289 288 287 286 285 284 283 281 280 279 277 275 273 272
288 291 291 293 294 295 295 297 298 297 296 299 300 301 301 301 302 302 304 304 304 305 300 297 294 290 288 287 288 288 288 286 284 283 282 280 279 278 277 277 276 275 273
285 289 289 293 295 293 292 294 294 297 299 300 301 301 300 301 302 302 301 301 301 301 300 304 299 296 291 289 288 286 286 286 285 284 282 280 278 276 275 273 272 271 270
286 288 291 294 292 291 294 295 296 297 298 298 299 300 300 300 300 299 299 299 299 299 299 300 301 301 296 292 288 285 285 283 282 281 280 279 277 276 275 273 271 269 268
287 288 292 291 291 293 293 294 296 297 299 300 301 302 303 303 303 302 301 300 298 297 296 297 298 299 298 296 293 289 286 283 282 281 279 277 276 274 274 273 273 271 269
284 288 289 290 291 292 293 296 297 299 301 303 304 305 304 304 303 301 300 299 297 296 295 295 296 295 295 295 293 292 290 287 284 282 281 281 280 278 275 273 273 272 271
287 290 291 291 292 294 296 298 300 302 303 305 306 306 305 304 303 302 300 299 298 296 295 294 293 293 293 294 293 293 292 291 288 285 282 280 278 278 278 277 275 273 270
288 288 289 292 295 297 299 300 301 304 306 306 306 306 305 304 303 303 303 301 299 298 297 297 297 296 296 295 295 295 294 293 292 291 290 290 287 283 279 276 274 270 267
287 290 293 296 298 299 301 303 305 306 308 308 307 305 304 304 303 302 301 301 302 302 301 301 299 298 299 299 298 297 296 296 294 292 291 291 292 288 283 274 269 268 265
292 294 296 297 299 301 303 305 307 309 310 308 307 307 306 306 306 305 303 302 300 299 298 298 297 297 297 297 297 297 296 295 294 294 294 293 292 289 288 283 275 268 265
294 296 297 299 302 303 306 308 309 309 308 307 307 309 310 309 308 307 304 303 303 301 297 294 292 293 294 295 293 292 292 292 291 295 295 292 292 291 288 287 285 279 277
295 298 302 304 306 308 308 308 307 307 308 310 311 311 310 309 309 308 307 306 305 304 302 301 301 302 302 301 298 295 292 288 294 296 292 290 293 291 289 289 288 282 277
301 303 306 309 310 310 309 309 311 313 313 313 312 311 311 312 311 311 310 308 307 307 305 304 305 305 304 304 299 295 295 293 296 298 297 296 295 295 294 292 289 285 279
Height
3150 3149 3149 3148 3149 3149 3147 3146 3145 3145 3144 3143 3141 3139 3138 3136 3135 3134 3133 3132 3131 3130 3128 3127 3126 3124 3124 3123 3121 3120 3119 3118 3117 3116 3115 3114 3113 3112 3113 3113 3113 3112 3112
3149 3148 3148 3146 3147 3147 3145 3145 3144 3143 3142 3141 3140 3138 3136 3135 3133 3132 3131 3130 3129 3127 3126 3124 3123 3122 3121 3120 3119 3117 3116 3115 3114 3113 3112 3111 3110 3109 3109 3109 3108 3108 3108
3147 3146 3146 3144 3145 3144 3143 3142 3142 3141 3140 3139 3138 3136 3134 3133 3131 3130 3129 3128 3126 3125 3124 3122 3120 3119 3117 3117 3116 3115 3113 3112 3111 3110 3109 3108 3107 3106 3105 3105 3105 3104 3104
3145 3144 3143 3141 3143 3143 3141 3140 3139 3138 3137 3136 3135 3134 3132 3130 3129 3128 3127 3125 3124 3122 3121 3119 3117 3115 3114 3113 3112 3111 3110 3108 3107 3106 3105 3104 3103 3102 3101 3101 3100 3100 3099
3143 3142 3141 3139 3140 3140 3139 3138 3137 3135 3134 3133 3132 3131 3129 3127 3126 3125 3123 3122 3121 3119 3117 3116 3114 3112 3110 3109 3107 3106 3105 3104 3103 3101 3100 3099 3099 3097 3096 3096 3095 3095 3094
3140 3140 3138 3137 3137 3137 3137 3136 3134 3133 3131 3130 3129 3128 3126 3124 3123 3121 3120 3118 3117 3115 3113 3112 3110 3108 3106 3105 3103 3101 3100 3098 3097 3096 3095 3093 3092 3092 3091 3090 3089 3089 3088
3137 3137 3135 3135 3135 3136 3133 3133 3131 3130 3128 3127 3126 3124 3123 3121 3119 3117 3116 3114 3113 3111 3108 3106 3105 3103 3101 3100 3098 3096 3094 3093 3091 3090 3089 3088 3086 3085 3084 3084 3083 3082 3081
3134 3133 3133 3133 3133 3133 3131 3129 3128 3126 3125 3124 3123 3120 3118 3118 3115 3113 3111 3109 3108 3106 3103 3101 3100 3098 3096 3094 3092 3091 3089 3087 3085 3083 3082 3081 3079 3078 3077 3076 3075 3075 3074
3131 3130 3131 3130 3129 3129 3127 3126 3125 3122 3121 3120 3118 3117 3114 3113 3111 3109 3107 3105 3104 3102 3099 3097 3095 3093 3091 3089 3087 3085 3082 3080 3078 3076 3075 3074 3072 3071 3070 3069 3068 3068 3067
3128 3127 3128 3127 3127 3125 3124 3122 3121 3119 3118 3116 3114 3112 3110 3108 3106 3105 3103 3100 3098 3095 3093 3091 3089 3087 3084 3082 3079 3077 3074 3072 3071 3069 3067 3066 3065 3064 3062 3061 3060 3060 3059
3125 3124 3124 3124 3123 3122 3120 3118 3117 3115 3113 3111 3109 3107 3105 3102 3100 3097 3098 3096 3092 3089 3087 3085 3082 3080 3077 3075 3072 3069 3066 3064 3062 3061 3059 3057 3056 3055 3053 3052 3051 3051 3051
3122 3121 3121 3120 3119 3118 3116 3114 3113 3111 3109 3107 3105 3102 3100 3097 3094 3090 3088 3088 3087 3088 3083 3079 3076 3073 3069 3066 3064 3062 3059 3057 3055 3053 3051 3049 3047 3045 3044 3043 3042 3041 3040
3118 3118 3117 3116 3115 3113 3112 3109 3108 3106 3104 3102 3100 3098 3095 3092 3089 3085 3081 3077 3076 3079 3078 3075 3070 3066 3063 3059 3056 3053 3051 3048 3046 3044 3041 3039 3037 3036 3034 3032 3031 3030 3029
3115 3114 3113 3112 3111 3109 3107 3105 3103 3102 3100 3098 3095 3093 3090 3087 3083 3079 3075 3069 3064 3065 3068 3068 3067 3062 3057 3052 3049 3044 3042 3039 3036 3034 3032 3030 3028 3026 3024 3023 3022 3021 3020
3111 3111 3109 3108 3106 3105 3103 3101 3099 3097 3095 3093 3091 3088 3086 3082 3078 3073 3068 3063 3056 3046 3047 3061 3053 3054 3047 3043 3040 3035 3031 3029 3026 3024 3022 3019 3017 3015 3013 3011 3010 3009 3008
3107 3106 3105 3103 3101 3101 3099 3096 3095 3093 3091 3089 3086 3083 3079 3076 3073 3067 3063 3058 3052 3043 3030 3033 3042 3040 3037 3033 3028 3023 3018 3015 3013 3010 3007 3005 3003 3001 2999 2997 2995 2994 2993
3103 3102 3100 3098 3097 3096 3094 3092 3091 3088 3086 3084 3080 3077 3073 3069 3066 3061 3055 3050 3045 3039 3027 3023 3020 3021 3022 3019 3017 3012 3007 3003 2999 2995 2992 2989 2986 2984 2983 2981 2980 2979 2979
3098 3097 3095 3093 3092 3091 3089 3087 3085 3082 3080 3078 3074 3070 3065 3061 3057 3052 3046 3042 3036 3031 3022 3013 3009 3006 3002 2999 2997 2995 2994 2990 2984 2980 2977 2973 2970 2968 2966 2964 2963 2963 2963
3094 3091 3090 3089 3088 3086 3084 3082 3079 3077 3074 3070 3066 3061 3056 3051 3047 3042 3036 3031 3025 3019 3013 3005 2999 2994 2988 2984 2979 2976 2973 2971 2969 2966 2962 2958 2955 2952 2951 2949 2947 2946 2945
3088 3087 3086 3084 3083 3081 3079 3076 3073 3070 3066 3062 3057 3051 3046 3041 3036 3030 3024 3019 3013 3007 3001 2995 2988 2981 2975 2970 2964 2958 2954 2951 2948 2946 2945 2942 2940 2938 2936 2933 2932 2930 2929
3084 3083 3081 3080 3078 3075 3073 3069 3065 3062 3058 3053 3048 3042 3037 3031 3025 3018 3011 3005 2999 2992 2985 2979 2972 2966 2960 2954 2948 2942 2935 2932 2928 2925 2921 2921 2921 2922 2920 2917 2915 2914 2913
3080 3078 3077 3075 3072 3068 3065 3060 3056 3053 3049 3043 3038 3034 3028 3021 3015 3008 3001 2993 2985 2976 2969 2962 2955 2948 2943 2937 2931 2924 2918 2913 2908 2912 2904 2902 2903 2900 2902 2901 2901 2899 2897
3075 3074 3072 3070 3066 3062 3058 3053 3048 3043 3038 3033 3026 3020 3014 3008 3001 2994 2987 2979 2972 2965 2957 2948 2940 2936 2928 2923 2916 2910 2904 2899 2895 2894 2890 2886 2890 2883 2886 2884 2885 2886 2884
3071 3069 3066 3063 3060 3055 3050 3045 3041 3036 3031 3024 3016 3009 3001 2993 2986 2978 2970 2963 2957 2950 2945 2936 2928 2923 2918 2913 2906 2899 2892 2887 2884 2883 2880 2872 2877 2873 2871 2871 2871 2871 2870
3066 3063 3060 3056 3052 3049 3043 3038 3032 3027 3020 3013 3006 2997 2989 2981 2973 2964 2955 2947 2940 2933 2926 2919 2914 2909 2905 2900 2895 2887 2883 2878 2873 2874 2872 2863 2865 2861 2860 2859 2859 2857 2856
3060 3057 3053 3049 3044 3040 3035 3029 3022 3014 3007 3000 2993 2984 2976 2967 2957 2948 2938 2929 2922 2917 2910 2906 2902 2897 2893 2889 2885 2879 2874 2869 2866 2863 2862 2857 2855 2851 2847 2848 2848 2846 2843